Regional Weather Roundup
Issued by NWS

Home | Current Version | Previous Version | Graphics & Text | Print | Product List | Glossary On
Versions: 1 2 3 4 5 6 7 8 9 10 11 12 13 14 15 16 17 18 19 20 21 22 23 24 25 26 27 28 29 30 31 32 33 34 35 36 37 38 39 40 41 42 43 44 45 46 47 48 49 50
000
ASUS43 KLMK 301510
RWRKY
KENTUCKY REGIONAL WEATHER ROUNDUP
NATIONAL WEATHER SERVICE LOUISVILLE KY
1100 AM EDT TUE JUN 30 2015

NOTE "FAIR" INDICATES FEW OR NO CLOUDS BELOW 12,000 FEET
WITH NO SIGNIFICANT WEATHER AND/OR OBSTRUCTIONS TO VISIBILITY.

KYZ001>023-026-027-061>063-070>075-301600-
WESTERN AND SOUTH CENTRAL KENTUCKY

CITY           SKY/WX    TMP DP  RH WIND       PRES   REMARKS
PADUCAH        SUNNY     79  68  69 W8        29.92R
HENDERSON      SUNNY     79  68  69 SW7       29.89S
OWENSBORO      SUNNY     81  69  66 SW12      29.91S
HOPKINSVILLE   MOSUNNY   78  71  80 W8        29.93S
BOWLING GREEN  PTSUNNY   76  69  79 SW6       29.93S
GLASGOW        MOSUNNY   75  69  81 SW6       29.94R
$$

KYZ024-025-028>034-038-045-046-053-301600-
NORTH CENTRAL KENTUCKY

CITY           SKY/WX    TMP DP  RH WIND       PRES   REMARKS
LOUISVILLE/SDF CLOUDY    78  65  63 W10       29.89S
LOUISVILLE/LOU SUNNY     77  65  66 W6        29.90F
FORT KNOX      MOSUNNY   76  67  73 SW9       29.90S
$$

KYZ035>037-039>044-047>052-055>060-089>105-301600-
NORTHEAST KENTUCKY

CITY           SKY/WX    TMP DP  RH WIND       PRES   REMARKS
LEXINGTON      MOSUNNY   73  67  81 SW8       29.93S
COVINGTON      PTSUNNY   72  66  81 SW10      29.89F
FRANKFORT      CLOUDY    72  66  81 SW7       29.92S
$$

KYZ054-064>069-076>088-106>120-301600-
SOUTHEAST KENTUCKY

CITY           SKY/WX    TMP DP  RH WIND       PRES   REMARKS
JACKSON        PTSUNNY   73  67  81 CALM      29.96F
LONDON         MOSUNNY   75  65  70 S8        29.96F
SOMERSET       CLOUDY    72  70  94 S3        29.96S
MIDDLESBORO    MOSUNNY   71  65  83 S7        30.00S
MONTICELLO     SUNNY     78  71  79 SW10      29.98S
$$




USA.gov is the U.S. government's official web portal to all federal, state and local government web resources and services.